Newark, NJ

10:52 AM EDT on April 22, 2018 (GMT -0400)
Newark International

Weather History for KEWR - January, 2013

Change the Weather History Date:

Saturday, January 5, 2013

  Actual Average Record
Temperature  
Mean Temperature 38 °F 32 °F  
Max Temperature 44 °F 39 °F 66 °F (1993)
Min Temperature 31 °F 25 °F 8 °F (1996)
Degree Days  
Heating Degree Days 27 33  
Month to date heating degree days 159 164  
Since 1 July heating degree days 1768 1914  
Cooling Degree Days 0 0  
Month to date cooling degree days 0 0  
Year to date cooling degree days 0 0  
Moisture  
Dew Point 20 °F    
Average Humidity 51    
Maximum Humidity 64    
Minimum Humidity 37    
Precipitation  
Precipitation 0.00 in 0.12 in 1.40 in (1949)
Month to date precipitation T 0.59  
Year to date precipitation T 0.59  
Snow  
Snow 0.00 in 0.30 in 3.10 in (1985)
Month to date snowfall T 1.2  
Since 1 July snowfall 8.5 7.0  
Snow Depth 0.00 in    
Sea Level Pressure  
Sea Level Pressure 30.20 in    
Wind  
Wind Speed 9 mph (West)    
Max Wind Speed 23 mph    
Max Gust Speed 29 mph    
Visibility 10 miles    
Events      
T = Trace of Precipitation, MM = Missing Value Source: NWS Daily Summary

Daily Weather History Graph

Daily Weather History Graph

Search for Another Location

Airport or City:

Astronomy

Jan. 05, 2013 Rise Set
Actual Time 7:20 AM EST 4:43 PM EST
Civil Twilight 6:50 AM EST 5:14 PM EST
Nautical Twilight 6:15 AM EST 5:48 PM EST
Astronomical Twilight 5:42 AM EST 6:21 PM EST
Moon 12:23 AM EST (1/5) 11:33 AM EST (1/5)
Length of Visible Light 10h 24m
Length of Day
9h 23m
Last Quarter, 44% of the Moon is Illuminated
Jan 5
Last Quarter
Jan 11
New
Jan 18
First Quarter
Jan 26
Full
Feb 3
Last Quarter

Hourly Weather History & Observations

Time (EST) Temp. Windchill Dew Point Humidity Pressure Visibility Wind Dir Wind Speed Gust Speed Precip Events Conditions
12:51 AM 33.1 °F 24.9 °F 18.0 °F 54% 30.04 in 10.0 mi West 10.4 mph - N/A   Clear
1:51 AM 33.1 °F 24.9 °F 17.1 °F 52% 30.06 in 10.0 mi West 10.4 mph - N/A   Clear
2:51 AM 32.0 °F 22.5 °F 17.1 °F 54% 30.09 in 10.0 mi West 12.7 mph - N/A   Clear
3:51 AM 32.0 °F 20.5 °F 17.6 °F 55% 30.10 in 10.0 mi WNW 18.4 mph 23.0 mph N/A   Partly Cloudy
4:51 AM 32.0 °F 23.0 °F 17.6 °F 55% 30.13 in 10.0 mi West 11.5 mph - N/A   Mostly Cloudy
5:51 AM 32.0 °F 22.5 °F 17.1 °F 54% 30.15 in 10.0 mi WSW 12.7 mph - N/A   Mostly Cloudy
6:51 AM 33.8 °F 25.8 °F 17.6 °F 52% 30.19 in 10.0 mi WSW 10.4 mph - N/A   Mostly Cloudy
7:51 AM 32.0 °F 24.2 °F 19.0 °F 59% 30.21 in 10.0 mi WSW 9.2 mph - N/A   Scattered Clouds
8:51 AM 35.6 °F 28.6 °F 19.4 °F 52% 30.26 in 10.0 mi WSW 9.2 mph 20.7 mph N/A   Scattered Clouds
9:51 AM 37.4 °F 30.3 °F 21.2 °F 52% 30.27 in 10.0 mi West 10.4 mph - N/A   Scattered Clouds
10:51 AM 41.0 °F 34.7 °F 21.0 °F 45% 30.27 in 10.0 mi NW 10.4 mph 21.9 mph N/A   Scattered Clouds
11:51 AM 42.1 °F 34.5 °F 19.9 °F 41% 30.26 in 10.0 mi NW 15.0 mph 26.5 mph N/A   Scattered Clouds
12:51 PM 43.0 °F 36.0 °F 19.9 °F 40% 30.24 in 10.0 mi NW 13.8 mph - N/A   Scattered Clouds
1:51 PM 44.1 °F 38.1 °F 19.9 °F 38% 30.23 in 10.0 mi WNW 11.5 mph 19.6 mph N/A   Scattered Clouds
2:51 PM 44.1 °F 39.0 °F 19.9 °F 38% 30.24 in 10.0 mi NW 9.2 mph 16.1 mph N/A   Scattered Clouds
3:51 PM 43.0 °F 38.2 °F 19.0 °F 38% 30.25 in 10.0 mi NW 8.1 mph - N/A   Scattered Clouds
4:51 PM 41.0 °F 38.0 °F 19.9 °F 43% 30.24 in 10.0 mi NW 4.6 mph - N/A   Scattered Clouds
5:51 PM 39.9 °F 36.7 °F 19.9 °F 45% 30.26 in 10.0 mi West 4.6 mph - N/A   Scattered Clouds
6:51 PM 39.0 °F 33.4 °F 21.9 °F 50% 30.27 in 10.0 mi WSW 8.1 mph - N/A   Scattered Clouds
7:51 PM 36.0 °F 30.3 °F 21.9 °F 57% 30.27 in 10.0 mi WSW 6.9 mph - N/A   Scattered Clouds
8:51 PM 34.0 °F 29.8 °F 21.9 °F 61% 30.25 in 10.0 mi WSW 4.6 mph - N/A   Scattered Clouds
9:51 PM 33.1 °F 28.7 °F 23.0 °F 66% 30.25 in 10.0 mi SW 4.6 mph - N/A   Mostly Cloudy
10:51 PM 33.1 °F 28.7 °F 23.0 °F 66% 30.22 in 10.0 mi SSW 4.6 mph - N/A   Overcast
11:51 PM 32.0 °F 27.5 °F 23.0 °F 69% 30.21 in 10.0 mi SSW 4.6 mph - N/A   Overcast